Location: Nitra
(0.0000°N, 18.0833°E)
Time: 04:55:51
(UTC+01:00)

Cosmos 2150 Rocket - Pass Details

Date: 24 January 2021
Orbit: 748 x 808 km, 74.0° (Epoch: 04 March)

Event Time Altitude Azimuth Distance (km) Brightness Sun altitude
Rises 18:17:03 0° 181° (S) 3,208 7.5 -4.1°
Reaches altitude 10° 18:19:32 10° 174° (S) 2,275 6.6 -4.6°
Maximum altitude 18:24:26 45° 102° (ESE) 1,015 4.3 -5.8°
Drops below altitude 10° 18:29:17 10° 30° (NNE) 2,256 6.0 -6.9°
Sets 18:31:42 0° 24° (NNE) 3,178 6.8 -7.5°
